Showing default

BEESAT, 35933

Orbit data source: Space-Track

BEESAT, 35933 is a payload satellite owned by TUB (DE) in SSO that was launched on Wed, 23 Sep 2009 UTC via a PSLV launch vehicle from the Sirharikota (SRI). Payload-class satellites include a variety of spacecraft equipped with specific instruments for various scientific and technological missions. These include communications satellites like Starlink; space stations such as the ISS; scientific satellites like the Hubble; Earth observation satellites from companies like Planet Labs, Umbra, and HawkEye 360; GPS; miniature CubeSats for education and research; and military/defense satellites.

Loading next visibility...
Identifier
35933, 2009-051C
Orbit
SSO
Country
Flag of DEDE / GER
Related business
Manufacturer
TUB
Mission
Operational Commercial Technology
Bus & Motor
CUBESAT 1U, Unknown motor
Mass
1 kg wet, 1 kg dry
Launch date (UTC)
2009-09-23 (16 years ago)
Launch vehicle
PSLV
Launch site
Sirharikota (SRI)
Object type
Payload
Rocket body
Debris
Shape & HBR
Box, 1.0 m
Radar Cross Section
0.015 m², Small (<0.1 m²)

Expand to show TLE details & history
Last TLE update: 16 hours ago

TLE from 16 hours ago
0 BEESAT
1 35933U 09051C   25348.94738887  .00001201  00000-0  25330-3 0  9994
2 35933  98.4076 248.5747 0006547  80.4419 279.7521 14.61282956862276
Epoch: 2025-12-14T22:44Z
TLE epoch observation values (Epoch: 2025-12-14T22:44:14.398Z)
Latitude
0.00001°
Longitude
-176.33829°
Altitude
691.234 km
Speed
7.511 km/s
True Right ascension
16h 34m 17s
True Declination
0° 00' 00"
Sunlit
Object was in daylight at epoch
Visualization orbit readout
Latitude
Unknown
Longitude
Unknown
Altitude
Unknown
Speed
Unknown
Apparent Right ascension
Unknown
Apparent Declination
Unknown
Sunlit
N/A
Visualization observer readout
Local Sidereal Time
13:21:48
Azimuth
Unknown
Elevation
Unknown
Doppler factor
Unknown
Orbital elements
Apogee altitude
690.749 km
Perigee altitude
681.499 km
Semi-major axis
7,064.261 km
Eccentricity
0.00065
Inclination
98.4076°
RAAN
248.5747°
Arg. of periapsis
80.4419°
True anomaly
279.67815°
Mean anomaly
279.7521°
Eccentric anomaly
279.71513°
Mean motion
3.65547 °/min
Orbital period
98.48 mins
BSTAR
0.0002533
Loading maneuver chart data...
Computing Atmospheric mass density...
Loading historical data...
Loading historical data...
Loading historical data...
Loading historical data...
Loading historical data...
Loading historical data...
Loading historical data...
Other satellites on launch #51 in the year 2009 (2009-09-23 UTC)

Documentation

Showing up to 5 results
|